Flag for U.S.A. Weather past 2 weeks in Bryan – College Station, Texas, U.S.A.

Now
75 °F

Passing clouds.


Feels Like: 73 °F
Forecast: 75 / 96 °F
Wind: No wind

Location: Easterwood Field

Current Time: Aug 23, 2014 at 8:33:06 AM

Latest Report: Aug 23, 2014 at 7:53 AM


Visibility: 7 mi

Pressure: 30.01 "Hg

Humidity: 96%

Dew point: 74 °F

Location of Bryan – College StationLocation

Historic Weather in Bryan – College Station — Graph

°F

Bryan – College Station temperature yesterday

Maximum temperature yesterday: 97 °F (at 3:53 PM)
Minimum temperature yesterday: 78 °F (at 6:53 AM)
Average temperature yesterday: 87 °F

Past Weeks' High & Low Weather Summary

 TemperatureHumidityPressure
High98 °F (Aug 16, 3:53 PM)97% (Aug 19, 5:53 AM)30.08 "Hg (Aug 19, 5:53 AM)
Low71 °F (Aug 13, 6:53 AM)31% (Aug 13, 4:53 PM)29.83 "Hg (Aug 18, 5:53 PM)
Average85 °F66%29.96 "Hg
* Reported Aug 8 6:53 AM — Aug 23 6:53 AM, Bryan – College Station, Weather by CustomWeather, © 2014

Note: Actual official high and low records may vary slightly from our data, if they occured in-between our weather recording intervals... More about our weather records

Advertising

Bryan – College Station weather history for previous 24 hours

 ConditionsComfort  
Time TempWeatherWind HumidityBarometerVisibility
6:53 AM
Aug 23
74 °FClear.3 mph94%30.00 "Hg9 mi
5:53 AM74 °FClear.3 mph94%30.00 "Hg9 mi
4:53 AM75 °FClear.3 mph94%29.99 "Hg10 mi
3:53 AM76 °FClear.No wind91%29.99 "Hg10 mi
2:53 AM77 °FClear.3 mph88%29.98 "Hg10 mi
1:53 AM79 °FClear.8 mph82%29.98 "Hg10 mi
12:53 AM81 °FClear.12 mph77%29.98 "Hg10 mi
11:53 PM
Aug 22
83 °FClear.13 mph70%30.00 "Hg10 mi
10:53 PM86 °FClear.13 mph61%29.99 "Hg10 mi
9:53 PM88 °FClear.15 mph55%29.98 "Hg10 mi
8:53 PM90 °FSunny.9 mph45%29.96 "Hg10 mi
7:53 PM93 °FSunny.12 mph42%29.95 "Hg10 mi
6:53 PM95 °FSunny.10 mph39%29.95 "Hg10 mi
5:53 PM97 °FSunny.15 mph36%29.95 "Hg10 mi
4:53 PM97 °FSunny.9 mph39%29.96 "Hg10 mi
3:53 PM97 °FScattered clouds.14 mph40%29.98 "Hg10 mi
2:53 PM96 °FPassing clouds.10 mph41%30.00 "Hg10 mi
1:53 PM95 °FSunny.10 mph44%30.03 "Hg10 mi
12:53 PM92 °FSunny.10 mph51%30.04 "Hg10 mi
11:53 AM89 °FScattered clouds.9 mph57%30.06 "Hg10 mi
10:53 AM87 °FSunny.8 mph65%30.07 "Hg10 mi
9:53 AM84 °FScattered clouds.9 mph74%30.06 "Hg10 mi
8:53 AM81 °FPassing clouds.9 mph88%30.05 "Hg10 mi
Weather by CustomWeather, © 2014

See weather overviewHow to use our weather pages